EW6790 Weather Reports


time (UTC)temp
C
wind
direction
speed
KPH
gust
KPH
rain 1hr
cm
rain 24hr
cm
rain mn
cm
humidity
%
barometer
mb
20260508030002 11 326 0.0 1.6 0.00 0.00 0.00 33 1009.9
20260508024601 11 326 0.0 0.0 0.00 0.00 0.00 33 1009.8
20260508023057 11 326 0.0 0.0 0.00 0.00 0.00 31 1009.7
20260508021558 12 326 0.0 0.0 0.00 0.00 0.00 30 1009.6
20260508020056 12 326 0.0 0.0 0.00 0.00 0.00 30 1009.4
20260508014556 13 345 1.6 4.8 0.00 0.00 0.00 29 1009.2
20260508013056 13 322 3.2 4.8 0.00 0.00 0.00 29 1009.1
20260508011543 14 329 3.2 6.4 0.00 0.00 0.00 28 1009.0
20260508010039 15 325 0.0 6.4 0.00 0.00 0.00 27 1008.8
20260508004525 16 321 1.6 8.0 0.00 0.00 0.00 27 1008.8
20260508003019 16 290 1.6 12.9 0.00 0.00 0.00 26 1008.8
20260508001501 17 329 4.8 16.1 0.00 0.00 0.00 24 1008.9
20260508000100 17 315 6.4 16.1 0.00 0.00 0.00 24 1008.9
20260508000006 17 336 4.8 14.5 0.00 0.00 0.00 24 1008.9
20260507234549 17 269 4.8 14.5 0.00 0.00 0.00 24 1008.9
20260507233042 17 294 4.8 14.5 0.00 0.00 0.00 24 1009.1
20260507231533 17 300 4.8 16.1 0.00 0.00 0.00 24 1009.1
20260507230020 17 292 6.4 11.3 0.00 0.00 0.00 23 1009.1
20260507224603 16 275 6.4 17.7 0.00 0.00 0.00 24 1009.3
20260507223110 17 282 6.4 19.3 0.00 0.00 0.00 24 1009.4
20260507221541 17 291 6.4 17.7 0.00 0.00 0.00 24 1009.5
20260507220038 17 320 4.8 16.1 0.00 0.00 0.00 24 1009.6
20260507214520 17 330 8.0 24.1 0.00 0.00 0.00 24 1009.7
20260507213024 16 318 8.0 17.7 0.00 0.00 0.00 25 1009.7
20260507211559 16 257 6.4 17.7 0.00 0.00 0.00 25 1009.8
20260507210057 16 322 3.2 20.9 0.00 0.00 0.00 25 1009.9
20260507204536 15 291 6.4 22.5 0.00 0.00 0.00 26 1010.1
20260507203040 16 264 8.0 22.5 0.00 0.00 0.00 26 1010.2
20260507201516 15 326 3.2 12.9 0.00 0.00 0.00 28 1010.4
20260507200013 15 314 6.4 22.5 0.00 0.00 0.00 26 1010.5
20260507194552 15 328 8.0 17.7 0.00 0.00 0.00 28 1010.7
20260507193058 15 287 17.7 25.7 0.00 0.00 0.00 27 1010.7
20260507191533 15 326 9.7 20.9 0.00 0.00 0.00 28 1010.8
20260507190033 15 266 4.8 12.9 0.00 0.00 0.00 31 1010.8
20260507184513 14 344 6.4 19.3 0.00 0.00 0.00 30 1010.9
20260507183028 14 278 3.2 22.5 0.00 0.00 0.00 30 1010.9
20260507181557 13 328 3.2 17.7 0.00 0.00 0.00 30 1011.0
20260507180053 13 330 3.2 14.5 0.00 0.00 0.00 32 1011.1
20260507174604 13 326 9.7 19.3 0.00 0.00 0.00 32 1011.2
20260507173057 13 300 3.2 11.3 0.00 0.00 0.00 32 1011.6
20260507171605 12 330 6.4 14.5 0.00 0.00 0.00 34 1011.8
20260507170044 12 11 1.6 12.9 0.00 0.00 0.00 35 1011.8
20260507164559 12 86 1.6 17.7 0.00 0.00 0.00 38 1011.8
20260507163040 12 105 3.2 16.1 0.00 0.00 0.00 37 1012.0
20260507161533 11 33 1.6 16.1 0.00 0.00 0.00 43 1012.0
20260507160020 11 210 3.2 14.5 0.00 0.00 0.00 41 1012.0
20260507154559 11 94 4.8 12.9 0.00 0.00 0.00 44 1012.0
20260507153059 11 60 1.6 9.7 0.00 0.00 0.00 43 1012.0
20260507151543 11 34 3.2 8.0 0.00 0.00 0.00 43 1012.1
20260507150040 11 328 3.2 9.7 0.00 0.00 0.00 43 1012.2
20260507144522 11 29 3.2 12.9 0.00 0.00 0.00 43 1012.2
20260507143020 10 63 3.2 11.3 0.00 0.00 0.00 44 1012.1
20260507141504 10 65 4.8 17.7 0.00 0.00 0.00 46 1012.3
20260507140100 10 60 6.4 16.1 0.00 0.00 0.00 46 1012.4
20260507134551 9 58 9.7 19.3 0.00 0.00 0.00 48 1012.5
20260507133040 8 34 9.7 16.1 0.00 0.00 0.00 48 1012.6
20260507131527 8 71 11.3 16.1 0.00 0.00 0.00 49 1012.6
20260507130020 7 70 11.3 16.1 0.00 0.00 0.00 51 1012.8
20260507124601 6 67 4.8 9.7 0.00 0.00 0.00 57 1012.9
20260507123108 -17 0.0 0.0 0.00 0.00 0.00 1012.9
20260507121540 -17 0.0 0.0 0.00 0.00 0.00 1013.0
20260507120034 -17 0.0 0.0 0.00 0.00 0.00 1013.2
20260507114521 -17 0.0 0.0 0.00 0.00 0.00 1013.5
20260507113007 -17 0.0 0.0 0.00 0.00 0.00 1013.3
20260507111546 2 51 1.6 3.2 0.00 0.00 0.00 73 1012.7
20260507110100 1 54 3.2 8.0 0.00 0.00 0.00 70 1012.6
20260507104527 2 58 6.4 11.3 0.00 0.00 0.00 69 1012.7
20260507103029 1 55 1.6 6.4 0.00 0.00 0.00 70 1012.9
20260507101516 2 72 1.6 4.8 0.00 0.00 0.00 69 1012.9
20260507100005 1 53 0.0 3.2 0.00 0.00 0.00 71 1013.0
20260507094621 1 25 1.6 4.8 0.00 0.00 0.00 71 1013.2
20260507093056 2 348 3.2 6.4 0.00 0.00 0.00 68 1013.2
20260507091615 3 90 6.4 11.3 0.00 0.00 0.00 63 1013.1
20260507090055 3 142 8.0 11.3 0.00 0.00 0.00 66 1013.2
20260507084550 2 128 4.8 8.0 0.00 0.00 0.00 69 1013.2
20260507083044 2 130 3.2 8.0 0.00 0.00 0.00 70 1013.4
20260507081543 2 150 1.6 9.7 0.00 0.00 0.00 68 1013.4
20260507080038 2 120 6.4 9.7 0.00 0.00 0.00 67 1013.7
20260507074543 2 124 4.8 9.7 0.00 0.00 0.00 65 1013.9
20260507073014 3 110 1.6 3.2 0.00 0.00 0.00 62 1014.5
20260507071513 2 51 4.8 6.4 0.00 0.00 0.00 62 1014.6
20260507064551 2 72 0.0 1.6 0.00 0.00 0.00 63 1014.7
20260507063035 2 72 1.6 3.2 0.00 0.00 0.00 60 1014.7
20260507061529 3 79 1.6 4.8 0.00 0.00 0.00 60 1014.6
20260507060011 3 110 0.0 3.2 0.00 0.00 0.00 61 1014.7
20260507054509 3 108 3.2 4.8 0.00 0.00 0.00 60 1014.5
20260507053053 3 122 0.0 1.6 0.00 0.00 0.00 61 1014.7
20260507051550 3 122 0.0 1.6 0.00 0.00 0.00 60 1014.8
20260507050039 3 121 1.6 4.8 0.00 0.00 0.00 59 1014.8
20260507044530 3 123 3.2 4.8 0.00 0.00 0.00 57 1014.8
20260507043010 3 96 3.2 4.8 0.00 0.00 0.00 56 1014.9
20260507041508 3 103 4.8 6.4 0.00 0.00 0.00 55 1014.8
20260507040047 4 96 3.2 4.8 0.00 0.00 0.00 55 1014.9
20260507034556 5 94 4.8 6.4 0.00 0.00 0.00 54 1015.0
20260507033041 4 116 4.8 8.0 0.00 0.00 0.00 54 1015.0
20260507031531 5 124 6.4 8.0 0.00 0.00 0.00 54 1015.3